シヴァード彗星

C/2025 K4 ( Siverd )

English version
Home page
Updated on August 10, 2025

---------------------------------------------------------------------

・ プロフィール

発見日 2025年5月30日
発見光度 19.1等
発見者 Robert Siverd (Asteroid Terrestrial-Impact Last Alert System (ATLAS) search program)

・ 軌道要素

Epoch 2025 May 5.0 TT = JDT 2460800.5
T 2025 July 27.33864 TT                                 Pike
q   2.5336365            (2000.0)            P               Q
z  +0.0247673      Peri.  326.54551     -0.00305787     +0.83259486
 +/-0.0010845      Node   297.15743     -0.72525736     -0.38317631
e   0.9372488      Incl.   38.49902     -0.68847107     +0.39995214
From 26 observations 2025 May 30-June 19, mean residual 0".6.

・ 光度変化

        m1 = 12.5 + 5 logΔ + 10.0 log r

---------------------------------------------------------------------

軌道要素はM.P.E.C. 2025-N64に掲載されたものです。
光度グラフはComet for Windowsで作成したものです。

---------------------------------------------------------------------

Copyright(C) Seiichi Yoshida (comet@aerith.net). All rights reserved.